User: anonymous   Login
Location: Unspecified
(0.0000°N, 0.0000°E)
Time: 05:05:00
(UTC+00:00)
Language:

Picosat 4 - Orbit

View from above orbital plane
View from above orbital plane
View from above satellite
View from above satellite

Ground track
Ground track

The orbit is defined by the following mean orbital elements,

1 26092U          26150.53696146 +.00000000 +00000-0 +24870-3 0 00000
2 26092 100.2079 173.4250 0031279 192.6853 167.3550 14.48803312    09
Epoch (UTC): 30 May 2026 12:53:13
Eccentricity: 0.0031279
inclination: 100.2079°
perigee height: 707 km
apogee height: 752 km
right ascension of ascending node: 173.4250°
argument of perigee: 192.6853°
revolutions per day: 14.48803312
mean anomaly at epoch: 167.3550°

The dashed part of the orbit path shows where the satellite is in the earth's shadow,  

DLR